FW1641 Weather Reports


time (UTC)temp
C
wind
direction
speed
KPH
gust
KPH
rain 1hr
cm
rain 24hr
cm
rain mn
cm
humidity
%
barometer
mb
20260504191554 28 284 0.0 4.8 0.00 0.00 0.00 30 1015.0
20260504190040 28 301 0.0 3.2 0.00 0.00 0.00 33 1015.3
20260504184537 27 297 0.0 4.8 0.00 0.00 0.00 34 1015.7
20260504183035 27 271 0.0 3.2 0.00 0.00 0.00 35 1015.8
20260504181533 27 275 0.0 3.2 0.00 0.00 0.00 36 1016.0
20260504180031 27 280 0.0 3.2 0.00 0.00 0.00 34 1016.2
20260504174528 26 278 0.0 4.8 0.00 0.00 0.00 38 1016.4
20260504173027 26 281 0.0 3.2 0.00 0.00 0.00 38 1016.7
20260504171531 25 282 0.0 3.2 0.00 0.00 0.00 39 1016.9
20260504081506 8 259 0.0 0.0 0.00 0.00 0.00 82 1017.8
20260504070151 10 260 0.0 1.6 0.00 0.00 0.00 77 1018.4
20260504044526 12 259 0.0 1.6 0.00 0.00 0.00 65 1018.5
20260504043032 13 260 0.0 1.6 0.00 0.00 0.00 63 1018.6
20260504041522 13 259 0.0 0.0 0.00 0.00 0.00 60 1018.7
20260504040015 14 260 0.0 0.0 0.00 0.00 0.00 57 1018.8
20260504034515 14 259 0.0 0.0 0.00 0.00 0.00 56 1018.9
20260504033014 14 259 0.0 1.6 0.00 0.00 0.00 56 1018.8
20260504031514 14 260 0.0 1.6 0.00 0.00 0.00 55 1018.6
20260504030016 15 259 0.0 0.0 0.00 0.00 0.00 54 1018.7
20260504024514 15 260 0.0 1.6 0.00 0.00 0.00 53 1018.6
20260504023011 15 259 0.0 1.6 0.00 0.00 0.00 50 1018.5
20260504021514 15 260 0.0 0.0 0.00 0.00 0.00 49 1018.2
20260504020010 16 260 0.0 1.6 0.00 0.00 0.00 49 1018.1
20260504014510 16 259 0.0 1.6 0.00 0.00 0.00 47 1017.9
20260504013009 16 260 0.0 1.6 0.00 0.00 0.00 46 1017.8
20260504011517 16 259 0.0 0.0 0.00 0.00 0.00 44 1017.6
20260504010007 17 260 0.0 1.6 0.00 0.00 0.00 43 1017.5
20260504004508 17 260 0.0 0.0 0.00 0.00 0.00 42 1017.4
20260504003007 17 259 0.0 3.2 0.00 0.00 0.00 43 1017.2
20260504001506 18 260 0.0 0.0 0.00 0.00 0.00 43 1017.1
20260504000006 18 260 0.0 0.0 0.00 0.00 0.00 41 1017.0
20260503234506 19 260 0.0 1.6 0.00 0.00 0.00 40 1016.9
20260503233004 20 260 0.0 3.2 0.00 0.00 0.00 38 1016.9
20260503231504 20 259 0.0 1.6 0.00 0.00 0.00 37 1017.0
20260503230004 21 260 0.0 3.2 0.00 0.00 0.00 36 1017.0
20260503224504 21 260 0.0 3.2 0.00 0.00 0.00 33 1017.0
20260503223002 22 259 0.0 4.8 0.00 0.00 0.00 31 1017.0
20260503221501 23 257 0.0 4.8 0.00 0.00 0.00 32 1017.0
20260503220001 25 263 0.0 3.2 0.00 0.00 0.00 30 1017.1
20260503214559 24 264 0.0 4.8 0.00 0.00 0.00 31 1017.1
20260503213059 23 284 0.0 6.4 0.00 0.00 0.00 32 1017.3
20260503211557 25 269 0.0 3.2 0.00 0.00 0.00 30 1017.4
20260503210155 23 269 0.0 4.8 0.00 0.00 0.00 31 1017.5
20260503204558 23 275 0.0 3.2 0.00 0.00 0.00 34 1017.6
20260503203057 23 340 1.6 4.8 0.00 0.00 0.00 30 1017.9
20260503201552 25 154 0.0 4.8 0.00 0.00 0.00 31 1018.1
20260503200050 24 294 0.0 3.2 0.00 0.00 0.00 30 1018.4
20260503194548 24 172 0.0 4.8 0.00 0.00 0.00 33 1018.6
20260503193049 24 279 1.6 4.8 0.00 0.00 0.00 32 1018.8